Location: Austin
(30.3000°N, 97.7500°W)
Time: 05:16:10
(UTC-06:00)

Meteor 2-6 Rocket - Pass Details

Date: 03 March 2026
Orbit: 804 x 914 km, 81.3° (Epoch: 5 March)

Event Time Altitude Azimuth Distance (km) Brightness Sun altitude
Rises 19:29:38 0° 359° (N) 3,364 7.4 -13.4°
Reaches altitude 10° 19:32:05 10° 4° (N) 2,442 6.6 -13.9°
Maximum altitude 19:37:28 52° 80° (E) 1,048 4.3 -15.1°
Drops below altitude 10° 19:42:58 10° 156° (SSE) 2,501 6.4 -16.2°
Sets 19:45:30 0° 161° (SSE) 3,452 7.2 -16.8°
